Coldstream, Australia

10:06 PM AEST on August 17, 2017 (GMT +1000)
Coldstream

Weather History for YMEN - April, 2014

Change the Weather History Date:

Thursday, April 3, 2014

  Actual Average Record
Temperature  
Mean Temperature 59 °F -  
Max Temperature 62 °F - - ()
Min Temperature 56 °F - - ()
Degree Days  
Heating Degree Days 6    
Growing Degree Days 9 (Base 50)    
Moisture  
Dew Point 54 °F    
Average Humidity 80    
Maximum Humidity 100    
Minimum Humidity 63    
Precipitation  
Precipitation 0.00 in - - ()
Sea Level Pressure  
Sea Level Pressure 30.10 in    
Wind  
Wind Speed 9 mph ()    
Max Wind Speed 16 mph    
Max Gust Speed -    
Visibility 5.9 miles    
Events      
T = Trace of Precipitation, MM = Missing Value Source: Averaged Metar Reports

Daily Weather History Graph

Daily Weather History Graph

Search for Another Location

Airport or City:

Trip Planner

Search our weather history database for the weather conditions in past years. The results will help you decide how hot, cold, wet, or windy it might be!

Date:

Astronomy

Apr. 03, 2014 Rise Set
Actual Time 7:33 AM AEDT 7:09 PM AEDT
Civil Twilight 7:07 AM AEDT 7:35 PM AEDT
Nautical Twilight 6:37 AM AEDT 8:05 PM AEDT
Astronomical Twilight 6:06 AM AEDT 8:36 PM AEDT
Moon 10:54 AM AEDT (4/3) 9:25 PM AEDT (4/3)
Length of Visible Light 12h 28m
Length of Day
11h 35m
Waxing Crescent, 12% of the Moon is Illuminated
Apr 3
Waxing Crescent
Apr 7
First Quarter
Apr 15
Full
Apr 22
Last Quarter
Apr 29
New

Hourly Weather History & Observations

Time (AEDT) Temp. Dew Point Humidity Pressure Visibility Wind Dir Wind Speed Gust Speed Precip Events Conditions
12:00 AM 61 °F 60 °F 96% 30.04 in - West 4.6 mph - -  
12:00 AM 60.8 °F 57.2 °F 88% 30.04 in 6.2 mi SSW 11.5 mph - N/A   Overcast
12:30 AM 60.8 °F 55.4 °F 82% 30.04 in 6.2 mi SW 11.5 mph - N/A   Overcast
1:00 AM 60.8 °F 57.2 °F 88% 30.04 in 6.2 mi SSW 12.7 mph - N/A   Overcast
1:19 AM 60.8 °F 57.2 °F 88% 30.04 in 3.7 mi SSW 12.7 mph - N/A   Overcast
1:30 AM 59.0 °F 57.2 °F 94% 30.04 in 3.1 mi SSW 13.8 mph - N/A   Overcast
2:00 AM 59.0 °F 55.4 °F 88% 30.04 in 6.2 mi SSW 10.4 mph - N/A   Overcast
2:20 AM 59.0 °F 57.2 °F 94% 30.06 in 3.7 mi WSW 11.5 mph - N/A   Overcast
2:30 AM 59.0 °F 57.2 °F 94% 30.04 in - SW 11.5 mph - N/A   Overcast
3:00 AM 60 °F 59 °F 97% 30.05 in - Calm Calm - -  
3:00 AM 57.2 °F 57.2 °F 100% 30.06 in - WSW 10.4 mph - N/A   Overcast
4:00 AM 57.2 °F 55.4 °F 94% 30.04 in 6.2 mi WSW 6.9 mph - N/A   Overcast
5:00 AM 59.0 °F 53.6 °F 82% 30.04 in 6.2 mi SW 6.9 mph - N/A   Overcast
6:00 AM 58 °F 57 °F 97% 30.05 in - Calm Calm - -  
6:00 AM 59.0 °F 53.6 °F 82% 30.04 in 6.2 mi WSW 9.2 mph - N/A   Overcast
7:00 AM 59.0 °F 51.8 °F 77% 30.06 in 6.2 mi SW 8.1 mph - N/A   Overcast
8:00 AM 59.0 °F 51.8 °F 77% 30.09 in 6.2 mi WSW 8.1 mph - N/A   Overcast
9:00 AM 57 °F 56 °F 93% 30.13 in - WSW 8.1 mph - -  
9:00 AM 59.0 °F 50.0 °F 72% 30.12 in 6.2 mi WSW 10.4 mph - N/A   Overcast
10:00 AM 60.8 °F 48.2 °F 63% 30.12 in 6.2 mi SW 11.5 mph - N/A   Overcast
11:00 AM 62.6 °F 50.0 °F 63% 30.12 in 6.2 mi SSW 11.5 mph - N/A   Overcast
12:00 PM 60 °F 55 °F 79% 30.14 in - East 4.6 mph - -  
12:00 PM 62.6 °F 50.0 °F 63% 30.12 in 6.2 mi South 11.5 mph - N/A   Overcast
1:00 PM 62.6 °F 51.8 °F 68% 30.12 in 6.2 mi South 12.7 mph - N/A   Overcast
2:00 PM 60.8 °F 53.6 °F 77% 30.12 in 6.2 mi SSW 12.7 mph - N/A   Overcast
3:00 PM 62 °F 53 °F 65% 30.13 in - SSE 8.1 mph - -  
3:00 PM 59.0 °F 55.4 °F 88% 30.12 in 5.6 mi South 16.1 mph - N/A   Drizzle
4:00 PM 62.6 °F 51.8 °F 68% 30.12 in 6.2 mi South 15.0 mph - N/A   Overcast
5:00 PM 62.6 °F 51.8 °F 68% 30.12 in 6.2 mi South 13.8 mph - N/A   Overcast
6:00 PM 61 °F 53 °F 67% 30.14 in - South 8.1 mph - -  
6:00 PM 60.8 °F 53.6 °F 77% 30.12 in 6.2 mi South 15.0 mph - N/A   Light Drizzle
7:00 PM 60.8 °F 50.0 °F 68% 30.15 in 6.2 mi South 15.0 mph - N/A   Overcast
8:00 PM 60.8 °F 51.8 °F 72% 30.15 in 6.2 mi South 13.8 mph - N/A   Overcast
9:00 PM 59 °F 52 °F 70% 30.18 in - SSE 8.1 mph - -  
9:00 PM 60.8 °F 51.8 °F 72% 30.18 in 6.2 mi SSE 11.5 mph - N/A   Overcast
10:00 PM 59.0 °F 51.8 °F 77% 30.18 in 6.2 mi SSE 13.8 mph - N/A   Mostly Cloudy
11:00 PM 59.0 °F 51.8 °F 77% 30.18 in 6.2 mi SE 10.4 mph - N/A   Unknown